GFSWCAN_2pvu_pres_042.txt.gz
Presure
207 293 291 284 266 274 276 130 249 254 282 277 300 308 339 317 278 286 323 335 320 325 330 322 327 334 247 252 242 239 231 231 229 223 220 228 229 205 224 219 216 217 196 242 223 232 215 222 221 222 151 215 220 209
224 283 276 275 268 268 280 282 247 265 266 282 295 327 342 312 280 351 334 325 326 309 308 308 309 316 316 284 248 247 243 231 233 223 217 233 229 227 220 221 220 183 237 242 247 233 232 221 223 214 220 219 241 229
291 291 277 275 279 271 277 282 252 273 269 287 305 319 325 293 303 364 336 309 314 307 299 294 299 306 325 330 317 251 240 245 237 231 222 221 225 206 214 218 217 221 241 243 242 241 218 218 219 229 228 243 244 236
290 278 272 277 278 271 268 271 254 271 289 292 319 374 330 319 393 365 334 310 309 310 299 305 306 305 309 311 313 325 294 246 240 237 225 227 215 222 220 218 224 226 246 247 215 218 215 194 222 234 223 259 240 261
295 277 275 279 277 209 263 270 241 263 293 295 329 377 317 532 392 358 330 309 322 292 296 300 291 299 299 277 306 315 318 312 252 240 231 225 226 222 222 227 228 260 249 240 226 214 215 233 223 234 228 265 204 240
285 90 282 273 275 272 257 267 274 269 296 300 329 368 697 447 387 349 311 311 295 294 300 295 287 286 288 287 129 132 297 305 288 255 238 234 239 232 232 230 271 247 256 223 220 219 218 236 209 238 227 231 257 231
278 277 274 277 270 266 255 265 258 270 279 314 365 335 674 413 371 330 311 307 307 297 297 284 280 280 283 274 272 264 241 279 282 272 245 245 240 234 202 198 240 249 241 220 230 223 226 233 233 228 224 268 213 215
279 272 279 271 273 276 275 277 241 269 282 302 380 326 442 391 352 319 308 314 302 294 284 277 271 275 267 266 265 263 263 235 265 269 278 276 277 267 207 235 254 245 253 228 229 230 211 242 253 220 262 247 242 261
276 279 277 267 268 246 277 260 258 258 279 284 349 317 406 366 341 320 320 306 295 284 280 273 270 262 258 247 250 247 246 240 233 239 268 237 247 227 256 222 251 244 249 225 235 223 240 255 219 245 239 233 234 250
277 273 252 267 267 265 266 245 242 271 277 283 331 319 290 356 337 312 310 304 284 282 274 270 260 247 243 241 212 240 232 238 228 315 272 328 330 297 275 244 242 244 217 223 232 230 251 213 228 244 241 242 241 233
189 263 268 269 227 262 257 257 260 261 256 281 323 319 283 365 342 312 318 299 287 280 275 263 249 238 233 226 228 260 227 203 215 290 273 275 282 263 245 246 242 212 219 231 235 247 207 202 261 242 220 231 233 210
263 266 265 267 263 258 262 253 262 250 280 266 300 319 295 304 356 323 316 304 286 273 271 260 243 237 232 236 219 259 254 249 180 285 244 233 245 255 209 234 248 246 229 240 223 218 227 210 253 228 228 191 227 217
260 255 267 262 267 255 260 250 265 265 257 263 285 318 310 280 353 331 301 312 282 275 268 268 240 236 228 230 222 237 230 245 217 277 267 247 245 237 228 250 207 199 225 253 224 229 243 252 206 234 233 239 218 219
267 255 262 265 268 267 256 262 244 254 249 260 263 311 308 287 268 349 327 307 299 285 278 260 255 234 234 217 230 219 220 231 239 225 267 271 225 259 269 237 205 211 210 222 202 245 203 246 234 235 221 224 219 198
268 261 262 261 267 263 264 266 253 258 255 262 257 304 313 313 277 267 328 343 311 272 279 276 263 259 231 232 219 228 212 217 233 231 238 234 243 250 238 223 228 228 211 250 239 224 220 222 202 204 203 201 196 199
265 264 260 266 257 252 262 262 271 252 256 255 262 296 304 295 296 273 264 264 343 361 281 287 280 275 255 222 230 223 92 220 218 222 230 227 223 221 245 252 246 228 216 237 214 204 203 204 213 206 203 204 203 208
274 263 266 270 275 267 264 261 256 263 258 261 273 301 291 301 284 310 281 265 254 320 361 322 264 274 273 272 229 229 230 226 104 207 120 214 234 229 225 219 213 216 215 211 212 200 152 204 205 205 203 204 209 216
274 264 262 269 154 163 181 267 257 264 273 290 288 278 290 280 302 282 303 280 270 255 238 316 357 373 308 246 248 255 151 234 232 224 226 217 210 101 232 237 228 226 217 216 215 214 199 205 211 213 219 220 208 191
187 136 243 210 161 210 271 254 262 259 262 279 292 283 287 274 271 302 285 283 299 277 260 246 240 296 342 379 310 284 252 257 240 233 230 224 224 213 209 213 223 226 228 228 225 223 220 220 223 223 223 223 224 221
176 283 237 267 265 260 260 255 250 258 256 282 293 282 276 286 266 274 283 294 283 291 301 279 260 240 249 282 330 352 402 323 289 246 241 239 232 224 225 214 211 213 215 217 219 220 219 222 223 224 223 221 220 221
191 282 267 288 289 265 272 322 305 292 282 277 290 278 272 282 259 269 291 271 291 291 281 293 307 285 262 238 232 270 303 324 351 398 308 305 269 251 239 236 100 223 214 210 212 213 214 212 199 201 203 205 212 216
285 278 281 218 291 288 286 310 283 279 278 276 286 276 277 275 268 267 278 271 259 298 296 277 283 297 314 292 270 246 236 250 278 302 342 372 387 336 266 244 256 240 203 235 226 222 218 210 205 210 213 213 211 210
279 282 278 305 307 327 339 302 286 296 284 281 277 283 277 276 269 266 269 276 282 276 287 299 308 282 303 318 333 297 275 255 246 241 258 283 308 336 359 386 331 296 282 248 243 236 236 237 231 224 226 221 212 208
294 287 285 291 286 329 276 290 306 297 284 280 288 271 279 283 272 255 262 271 281 280 279 287 301 302 290 318 350 346 336 295 280 269 259 244 245 250 274 289 312 348 373 346 297 305 287 252 247 240 235 230 232 228
294 280 291 287 287 325 281 308 305 282 279 282 284 277 273 280 271 262 266 272 273 282 279 291 310 303 288 321 353 340 335 328 308 291 290 281 279 268 258 256 260 256 265 277 301 352 408 316 300 286 274 267 257 251
298 292 292 282 318 309 326 307 323 292 293 285 281 275 275 282 274 255 265 268 272 287 290 302 326 296 303 338 352 338 330 331 329 328 322 300 296 284 282 278 273 237 237 241 242 247 253 264 269 297 329 306 289 275
293 284 279 294 293 280 343 323 293 294 295 291 282 276 273 272 260 262 265 272 282 291 298 324 306 303 312 343 337 330 326 320 317 316 319 323 330 330 316 298 290 286 272 273 240 239 241 242 242 247 253 265 273 309
289 287 286 278 300 296 286 273 294 297 297 290 286 280 275 263 268 271 276 287 287 302 325 313 299 308 342 346 328 313 307 306 306 310 313 313 312 310 310 315 264 274 294 298 288 256 254 251 248 249 252 257 263 264
288 283 285 287 286 328 320 313 306 306 301 281 269 265 273 275 280 273 282 289 309 321 305 296 309 349 344 317 304 297 307 305 302 294 260 258 266 305 315 312 310 309 304 282 275 269 265 260 258 260 260 262 262 266
284 283 296 288 288 298 306 303 296 291 288 276 277 279 278 271 276 283 292 300 317 301 303 306 350 336 310 302 301 301 303 260 253 337 495 499 497 375 368 372 354 361 450 461 468 425 413 383 319 294 275 276 291 289
293 291 285 286 280 308 304 298 294 292 291 282 279 285 284 286 285 298 305 322 296 302 311 348 338 306 303 298 299 271 258 351 428 402 368 350 449 442 475 471 405 447 422 498 443 376 344 333 350 331 300 306 301 291
294 289 286 280 277 282 307 306 304 302 284 287 296 293 301 300 303 314 315 299 303 307 356 342 302 298 291 289 257 255 318 421 461 438 427 410 405 446 433 433 379 400 375 418 395 345 336 311 318 299 295 289 289 284
294 289 286 280 279 279 281 278 281 288 298 308 320 304 317 313 312 292 297 304 346 355 343 300 293 290 282 254 284 315 420 452 429 412 390 403 429 438 455 385 452 371 461 376 366 338 318 327 302 287 288 279 275 278

GFSWCAN_2pvu_pres_045.txt.gz
Presure
179 154 199 229 279 292 292 280 279 285 286 271 262 254 282 283 319 332 305 288 357 352 349 339 337 320 268 251 239 233 233 234 226 244 242 238 234 236 239 215 217 229 218 219 220 242 245 238 219 216 225 217 228 219
183 277 127 294 271 290 284 178 279 288 259 275 257 261 275 295 354 328 292 360 344 330 345 351 318 325 301 257 248 246 233 234 232 236 243 233 238 231 240 230 229 217 220 209 224 236 229 227 205 226 222 212 226 219
294 281 285 282 290 300 171 279 277 289 279 265 258 272 284 303 371 308 383 350 334 317 326 322 315 318 321 280 253 251 245 237 235 233 228 220 233 231 227 230 222 218 219 214 246 241 191 208 226 210 224 238 225 241
291 291 288 307 304 288 274 281 275 284 276 279 284 274 302 378 443 442 371 344 343 315 313 308 312 310 314 317 276 253 255 248 235 233 233 232 221 230 225 223 217 220 212 218 241 248 241 229 230 221 230 241 210 227
281 286 294 161 292 283 283 278 277 281 289 277 289 278 359 418 637 406 357 336 330 315 305 299 303 309 317 316 322 329 258 242 242 234 234 227 224 221 218 207 221 195 211 225 231 251 240 214 226 231 226 225 236 236
285 318 303 303 287 286 279 274 278 279 282 254 278 300 397 656 473 383 344 327 314 309 315 306 309 302 303 304 317 318 257 266 249 231 231 234 229 218 220 222 218 218 217 225 247 249 223 224 221 220 222 234 234 247
334 308 304 286 273 274 282 269 278 282 287 259 264 304 693 608 414 366 334 323 311 311 297 304 294 296 301 296 295 300 301 310 196 256 240 233 234 223 223 226 216 222 227 226 259 251 223 219 220 223 237 228 216 224
247 307 300 288 275 282 277 273 199 283 284 299 255 303 352 436 384 344 331 325 312 293 305 299 288 287 284 280 279 280 286 289 297 307 279 246 236 237 233 227 226 230 230 244 213 253 212 211 230 228 246 215 248 245
304 308 294 290 271 277 278 275 272 277 244 289 286 274 359 385 364 340 336 306 307 304 306 291 288 281 275 271 272 272 273 272 276 281 279 305 260 248 236 188 194 236 244 268 251 251 231 218 217 225 259 228 241 238
306 297 288 278 288 283 279 276 268 269 268 280 275 279 309 308 326 343 320 306 303 315 292 286 286 271 267 267 264 259 261 261 264 272 278 279 292 258 244 245 263 218 266 261 263 261 233 231 240 237 234 236 241 241
308 289 275 288 282 276 269 265 266 263 267 284 270 269 285 322 280 325 327 317 308 299 290 280 271 263 260 256 252 249 254 252 248 266 267 261 272 274 270 271 227 245 270 211 257 245 224 231 232 240 224 233 241 196
289 291 282 287 291 280 263 257 268 264 275 277 256 261 270 283 305 289 338 322 315 293 285 279 266 259 252 247 243 236 233 232 269 223 208 296 312 259 247 243 247 250 270 238 245 214 208 232 249 223 230 228 247 230
293 291 292 276 276 269 265 257 252 264 274 277 254 277 258 279 319 290 274 306 312 303 288 280 262 255 249 247 240 234 237 250 232 272 220 273 280 289 303 287 287 268 258 251 247 236 218 229 238 225 202 248 242 237
293 289 274 273 272 278 149 265 254 266 262 266 268 273 281 272 311 316 282 333 301 305 284 279 269 255 249 242 243 239 229 250 255 231 221 259 255 265 255 250 243 228 240 245 247 193 204 253 220 231 246 266 248 233
278 270 263 262 256 259 262 264 261 257 259 261 275 274 268 294 307 307 305 273 350 335 301 284 283 268 251 244 240 239 226 228 230 228 230 251 267 255 243 243 242 250 222 252 200 206 239 222 213 245 211 237 238 210
289 281 277 266 266 264 262 267 261 265 261 274 265 258 267 277 296 290 295 307 271 280 337 293 274 279 261 249 238 236 237 220 228 224 221 229 230 227 278 277 260 274 274 265 255 213 230 229 245 242 216 227 219 218
279 273 272 245 266 264 266 254 266 265 266 183 175 265 255 262 268 293 291 312 312 268 248 364 342 335 277 251 242 240 232 237 233 223 226 221 221 225 110 216 226 244 253 234 234 232 239 242 244 194 160 210 208 211
274 272 267 266 265 245 242 147 273 264 149 273 228 262 258 255 260 292 287 283 305 303 270 257 279 323 336 307 261 258 257 245 236 233 233 230 225 222 218 222 221 135 226 224 242 221 216 226 224 214 214 213 212 211
275 277 278 278 123 268 270 262 262 264 262 272 276 262 254 254 260 290 282 281 275 304 289 298 270 254 256 296 318 343 328 280 248 247 241 235 159 234 227 222 221 219 220 225 227 227 230 229 224 219 218 218 221 222
226 280 277 283 276 174 141 261 276 261 254 251 251 255 255 261 296 288 281 285 273 269 279 293 293 291 283 253 247 263 282 313 347 365 297 248 246 239 234 237 236 228 224 223 218 214 224 238 225 227 229 226 223 224
276 285 278 283 133 137 147 157 271 273 276 269 267 269 279 306 295 286 282 278 275 262 266 286 275 292 297 295 297 262 248 245 256 277 297 341 363 325 243 246 249 234 233 236 234 229 225 223 215 208 213 216 217 216
288 293 248 143 148 282 283 284 279 282 204 280 266 286 310 311 293 275 287 273 280 272 263 276 281 264 268 288 297 293 292 299 273 253 244 250 269 295 316 327 361 260 248 246 247 231 231 233 233 227 223 224 222 217
284 243 287 286 300 293 278 283 272 270 272 277 307 294 298 302 290 281 278 285 274 277 271 263 273 279 285 277 272 291 307 320 297 302 315 303 262 255 245 250 277 307 330 336 270 260 253 246 246 242 221 224 228 227
284 284 283 285 280 277 274 294 291 305 309 321 302 300 305 281 293 277 274 277 274 278 270 266 263 267 279 283 290 272 297 300 318 309 298 352 352 348 312 273 264 249 244 282 307 338 363 358 269 264 258 247 241 233
184 289 291 278 270 279 279 276 275 274 282 282 338 328 286 293 296 286 272 279 279 273 278 271 274 269 274 278 283 295 303 310 325 304 304 354 350 341 340 338 316 299 284 267 239 236 270 291 303 346 377 337 316 275
196 157 288 284 277 285 286 284 281 285 288 307 294 280 304 309 301 279 277 281 285 268 274 280 278 263 267 281 291 302 325 333 323 308 309 345 348 342 333 334 336 338 325 304 295 287 254 232 241 245 266 284 295 371
290 271 286 285 283 286 289 281 282 285 283 322 298 277 302 310 303 282 281 277 278 269 271 265 264 272 279 290 289 312 335 326 311 312 329 353 348 341 335 327 324 329 337 339 340 323 300 292 260 236 244 236 238 239
288 290 284 286 278 280 293 287 285 287 284 289 329 319 314 309 305 287 281 282 275 277 273 265 273 279 281 285 303 317 327 312 305 363 343 334 330 324 320 314 308 309 311 316 317 317 320 329 324 288 252 232 236 236
278 297 291 288 288 295 289 292 281 288 289 277 311 323 307 301 296 294 289 285 282 270 266 278 277 278 288 300 313 339 322 311 372 332 320 315 312 314 308 298 289 280 277 271 268 265 272 285 298 311 315 303 279 257
287 288 291 298 298 291 288 291 291 284 286 296 287 281 296 300 296 293 287 269 272 276 281 277 292 297 307 302 335 316 323 378 325 311 298 296 295 283 261 264 359 496 501 507 455 468 367 314 288 270 257 253 280 277
305 310 306 305 301 295 294 292 287 282 286 325 319 308 301 296 294 293 289 284 282 286 287 293 305 315 334 326 305 352 371 319 308 299 286 272 258 408 467 458 459 459 456 466 427 382 364 379 433 535 389 282 268 265
313 309 311 305 301 295 286 278 292 285 279 301 302 301 296 295 295 292 289 285 290 297 304 320 334 319 312 299 370 360 307 295 289 275 262 286 466 449 434 411 403 398 431 473 475 448 414 368 333 393 373 394 354 340
309 310 305 300 291 286 286 283 279 276 304 313 311 306 303 291 299 299 304 306 314 327 326 321 312 315 344 349 313 302 293 286 265 271 310 450 435 421 405 433 443 435 429 435 479 394 383 393 483 433 327 352 327 311

GFSWCAN_2pvu_pres_048.txt.gz
Presure
114 135 102 294 294 288 281 289 265 278 305 277 282 283 269 268 266 277 288 326 329 308 311 354 346 287 272 258 241 241 229 260 248 243 237 228 226 226 228 223 220 226 218 217 219 220 237 244 242 235 228 227 218 230
123 294 288 295 181 301 290 286 306 304 305 294 289 283 286 271 268 287 300 345 324 372 354 358 347 329 288 277 263 253 244 237 235 242 246 244 238 231 228 228 235 236 220 229 222 222 243 236 241 239 224 225 232 226
298 186 295 171 295 308 312 281 302 291 307 298 282 287 263 270 289 304 403 428 386 353 347 341 344 343 338 283 270 254 250 243 235 235 234 230 233 235 231 235 239 220 229 223 222 221 242 245 230 233 219 232 220 244
266 295 295 305 311 221 308 289 299 298 304 292 283 261 292 299 309 483 577 425 368 345 331 331 349 344 321 319 275 260 249 246 232 240 235 240 241 239 226 245 240 236 225 220 223 221 248 243 194 230 227 228 228 250
277 298 318 311 157 235 310 167 308 298 288 295 279 286 294 275 476 697 530 392 350 335 324 321 317 323 315 323 332 273 256 208 240 239 236 237 242 236 235 239 229 233 223 222 214 225 214 246 244 235 205 237 228 234
201 333 328 285 172 331 307 291 287 295 291 287 278 285 298 275 699 534 407 351 337 320 315 307 308 312 310 316 326 333 269 253 154 239 242 234 231 221 226 234 236 225 218 223 208 223 217 250 247 226 219 217 236 228
320 302 314 318 294 266 306 289 297 292 283 278 287 285 280 295 466 389 364 348 339 319 307 306 302 309 310 306 306 318 325 290 253 243 242 236 227 233 233 220 225 202 219 212 211 222 224 248 236 218 229 224 238 235
295 324 333 321 321 308 298 290 290 284 282 280 288 271 304 299 394 363 347 336 329 317 304 308 308 300 293 300 297 301 307 312 305 258 234 242 237 234 234 223 216 210 221 220 222 221 230 231 250 234 231 220 247 231
333 242 322 302 306 282 293 286 288 280 294 279 289 297 294 284 381 352 345 329 318 311 303 306 294 294 292 283 293 289 293 294 303 308 290 245 228 233 235 230 220 220 222 223 224 224 224 231 249 242 221 239 231 242
330 324 309 298 300 290 290 283 279 287 287 271 278 297 290 277 311 355 344 319 323 298 305 301 298 285 282 286 280 276 277 275 283 289 298 301 256 242 236 229 231 230 226 224 183 233 232 259 255 254 216 236 227 240
333 310 292 294 281 286 289 277 270 278 280 275 271 287 282 281 306 287 307 337 316 308 317 292 293 285 276 274 267 266 264 269 270 275 277 283 291 309 254 243 239 236 209 228 223 233 247 259 251 242 234 227 224 230
322 311 300 297 292 272 293 273 265 272 285 279 234 260 273 257 307 302 300 309 327 310 319 299 290 278 275 269 266 262 262 265 266 269 270 278 279 287 299 279 266 257 251 240 241 258 264 257 262 236 232 224 245 236
311 298 302 286 290 281 279 275 277 262 274 268 273 256 275 263 301 313 310 295 332 294 312 290 280 274 271 270 262 262 258 257 254 251 248 290 301 271 271 277 288 277 274 272 232 205 208 265 256 218 223 232 233 220
306 298 289 284 287 276 267 268 264 272 272 273 272 268 278 273 284 278 301 297 262 305 303 295 280 269 267 261 258 253 253 246 237 252 284 183 277 285 300 281 243 244 253 240 245 271 242 257 211 224 219 218 247 200
299 304 296 291 278 284 263 277 269 272 261 262 267 268 275 242 262 274 271 301 289 261 319 300 277 273 260 260 254 251 246 236 233 243 238 276 279 272 278 283 292 253 241 249 271 268 251 249 254 214 236 192 201 231
299 291 276 289 274 263 274 265 265 260 265 259 265 230 275 229 274 217 270 289 298 314 264 347 301 272 267 256 256 250 249 242 239 231 243 231 231 278 249 268 263 268 268 264 253 248 229 243 246 216 193 219 218 244
293 275 289 269 279 275 268 265 257 144 256 263 267 255 267 266 274 273 267 275 264 291 307 271 330 324 298 263 266 262 253 253 244 243 235 232 230 231 227 265 261 239 239 240 235 228 233 231 246 213 211 216 225 245
288 283 277 269 271 258 258 259 205 262 261 260 266 256 269 265 220 276 259 265 274 296 285 305 279 262 336 327 286 265 268 258 254 246 243 239 235 224 233 226 228 224 244 271 272 264 273 270 261 251 231 231 234 233
285 287 274 277 266 212 275 271 268 272 262 266 263 264 265 258 265 262 255 255 263 291 290 285 294 294 267 259 291 314 330 301 267 255 258 247 246 247 240 235 230 231 231 229 227 225 225 225 224 223 219 216 215 215
285 281 285 269 268 268 268 273 273 264 267 176 221 180 161 254 257 253 254 253 260 290 286 279 275 278 284 296 291 257 258 277 295 310 308 261 258 255 241 242 250 163 242 237 236 199 223 223 227 227 229 229 228 226
293 286 280 273 216 271 146 269 276 275 134 142 152 266 265 264 272 267 272 265 270 295 285 273 280 270 266 271 277 288 293 297 268 257 246 274 286 296 317 262 255 253 244 240 247 249 246 233 235 236 235 231 217 217
292 216 289 281 281 276 272 273 269 237 239 177 277 271 268 268 272 272 278 266 268 305 290 274 273 271 278 270 272 278 277 274 283 288 291 303 309 261 252 271 288 302 279 269 259 255 251 245 238 239 244 245 230 226
290 288 286 289 285 271 276 276 272 279 219 273 273 272 276 273 272 272 268 263 267 311 309 286 278 277 272 280 277 263 269 278 282 282 275 281 288 305 319 319 284 255 250 274 292 303 308 291 261 261 255 251 252 242
293 288 288 282 283 286 281 277 281 292 271 270 276 274 274 271 271 268 273 295 284 306 268 285 273 276 275 281 281 278 279 255 269 276 279 285 301 311 335 347 329 300 310 370 344 255 242 249 279 294 309 350 363 269
293 291 290 284 282 280 281 282 285 283 279 277 282 289 293 284 276 292 323 300 291 304 278 298 289 275 284 275 274 279 277 282 278 263 277 291 300 309 343 341 331 320 313 340 360 355 353 344 269 251 246 244 275 309
206 245 289 284 239 269 282 282 281 282 283 284 275 279 282 293 273 298 282 283 308 300 289 299 294 284 279 280 272 272 281 277 271 269 286 291 293 310 325 327 319 320 323 355 345 350 353 354 349 340 307 265 252 246
282 135 189 217 225 177 210 169 280 280 278 274 278 283 282 272 276 278 304 317 299 285 308 305 300 286 277 276 275 275 267 264 268 282 280 291 306 319 339 325 307 355 363 353 350 346 338 340 340 339 343 340 312 275
276 269 276 284 281 279 278 280 290 292 284 277 289 290 282 278 292 284 318 315 274 279 308 312 305 293 286 285 282 288 267 275 280 279 287 305 316 333 330 320 355 346 334 330 328 321 316 315 316 317 315 316 326 335
273 270 288 291 287 282 281 281 275 286 284 288 290 287 281 281 283 280 289 314 311 302 300 307 305 302 291 290 287 281 278 288 279 291 302 313 339 329 309 404 335 320 311 308 314 313 307 303 302 304 306 308 307 306
273 279 306 292 290 282 282 222 274 287 282 280 282 290 287 280 285 307 283 318 322 311 302 299 294 296 295 294 294 276 286 293 296 306 330 322 305 386 344 327 312 305 296 291 285 274 270 272 271 264 261 263 267 282
318 322 309 294 293 290 285 289 294 293 288 288 288 283 282 284 286 286 289 285 325 310 296 303 306 306 299 289 288 290 303 310 335 335 320 366 336 323 308 299 289 278 279 383 460 451 460 467 478 503 470 461 452 290
322 306 313 315 309 292 283 295 290 283 298 292 288 291 293 285 285 290 317 311 308 304 301 300 294 288 295 302 298 311 333 333 349 350 338 317 309 300 287 278 287 449 448 436 447 410 401 401 434 478 451 446 443 426
325 316 312 315 311 305 286 283 275 301 296 295 293 285 291 286 283 289 310 308 307 303 298 300 302 300 298 305 320 341 336 327 300 312 312 302 297 280 284 319 441 426 415 417 427 441 425 465 438 424 425 330 394 472

GFSWCAN_2pvu_pres_051.txt.gz
Presure
195 304 298 306 112 297 299 248 260 293 296 287 284 303 301 300 281 290 274 282 285 284 296 322 360 278 331 271 247 255 240 256 248 246 240 233 225 226 225 224 221 219 218 217 219 223 225 217 243 249 187 235 232 224
249 308 283 298 233 302 136 142 296 238 295 300 283 294 309 286 295 282 279 287 290 282 295 364 361 361 352 295 257 257 252 226 244 246 244 235 231 226 225 223 225 220 225 219 224 217 219 217 249 245 243 235 234 217
308 294 300 295 166 172 306 119 301 301 328 293 300 299 297 287 294 289 295 303 299 299 404 367 348 344 344 339 277 263 261 243 262 246 237 235 233 230 226 224 228 229 221 225 231 219 214 224 245 246 235 238 238 232
205 186 224 282 298 328 322 317 307 314 244 308 309 303 290 292 295 310 316 329 525 495 385 359 339 330 322 338 315 263 262 253 253 236 233 242 238 233 228 223 222 227 230 237 222 224 225 221 245 237 161 235 235 229
309 310 295 194 290 222 316 201 332 267 298 306 312 293 297 291 309 326 339 649 494 421 365 350 336 330 327 340 342 296 255 251 247 259 255 232 246 239 239 236 236 234 238 221 230 219 201 221 245 241 236 232 223 235
186 110 289 128 345 329 326 312 310 310 300 306 294 293 290 298 313 345 578 475 411 371 345 330 326 334 329 319 319 331 287 259 249 243 235 240 234 234 236 238 237 227 243 227 217 221 217 223 219 246 239 245 235 214
367 121 186 289 342 327 327 344 314 300 307 315 294 287 294 295 302 314 436 397 369 348 326 322 312 312 315 315 313 320 326 272 257 247 241 159 223 239 236 244 231 229 234 228 228 219 220 212 226 229 250 244 216 217
126 354 126 222 338 349 213 316 312 307 299 293 291 282 291 289 312 355 380 369 345 332 322 310 309 300 304 310 314 313 318 327 274 260 249 229 240 245 234 245 221 228 231 232 221 216 220 221 219 230 239 239 225 218
357 343 342 290 271 329 320 303 306 296 293 284 285 283 287 289 300 387 374 356 332 318 313 314 302 312 308 301 309 308 314 316 317 313 264 253 244 234 243 220 224 218 217 228 211 216 217 223 219 225 228 241 253 242
349 134 315 320 319 298 324 300 289 300 280 291 278 295 274 288 287 337 357 326 336 268 311 310 307 301 303 300 294 289 293 291 302 312 322 272 245 234 238 226 224 223 215 222 216 217 222 222 226 226 233 236 252 210
285 339 343 337 326 104 296 305 291 281 274 241 278 272 281 283 283 314 333 344 335 321 316 307 304 295 292 289 281 284 286 284 288 294 299 309 318 259 234 248 234 232 231 225 215 217 222 222 222 231 226 234 250 234
251 338 337 331 328 301 300 295 292 281 275 284 270 276 276 283 274 296 335 326 325 327 314 308 300 293 292 281 282 277 276 276 275 279 284 290 298 305 289 244 235 235 228 230 233 227 226 223 229 233 230 243 269 246
330 329 342 318 317 297 300 300 279 279 278 281 275 242 279 281 282 302 320 290 346 307 326 308 301 292 281 278 275 270 267 266 267 268 267 268 276 282 291 299 306 250 242 236 232 231 233 224 234 235 241 257 257 253
329 323 328 324 309 303 282 284 279 276 277 278 273 273 272 272 278 272 294 300 281 325 308 299 317 294 282 272 272 265 263 261 264 256 255 253 299 261 271 277 281 296 310 260 249 246 245 247 213 243 264 259 267 257
318 321 319 311 298 286 304 285 275 267 273 242 270 271 273 266 269 274 164 283 238 160 278 332 303 284 273 273 264 266 259 258 256 251 250 253 272 285 289 295 299 265 271 279 280 268 267 253 268 223 258 267 251 212
313 316 305 319 292 293 280 280 276 263 269 265 264 266 264 264 270 277 271 260 258 300 294 292 286 328 280 277 267 262 260 257 249 244 231 238 251 237 271 276 283 290 278 246 258 259 244 262 245 244 271 238 263 253
307 314 343 304 298 293 281 271 275 264 266 264 258 267 263 259 263 257 267 278 258 274 288 298 307 258 377 289 279 272 266 263 254 250 243 241 218 246 240 260 276 239 276 285 251 256 238 252 249 259 272 268 249 249
301 295 313 305 287 285 279 275 267 271 265 260 264 262 259 257 236 267 271 268 279 274 273 269 304 301 274 292 366 295 273 265 262 256 251 248 242 238 240 239 234 245 263 263 257 266 271 268 265 256 236 236 224 231
297 295 304 292 289 282 276 273 272 259 262 267 264 260 256 258 261 266 267 259 262 262 253 269 275 298 285 294 275 260 317 318 279 271 260 260 255 253 249 244 240 227 219 228 235 248 264 264 262 260 195 229 235 243
300 292 306 287 295 278 269 266 265 258 258 264 258 258 256 261 259 267 151 189 265 256 252 253 262 285 286 284 281 288 287 262 261 292 304 297 270 263 260 254 255 255 250 244 238 233 228 226 227 231 236 239 232 223
292 288 299 304 288 276 273 266 262 266 257 256 260 258 265 259 193 164 260 262 259 257 265 267 261 270 289 262 276 277 270 278 286 295 288 255 255 286 298 298 273 267 259 255 251 255 252 242 247 244 240 237 236 234
285 291 297 288 278 279 293 272 270 261 268 260 267 261 264 256 225 258 261 264 263 264 269 270 272 267 277 284 275 276 266 275 274 274 279 286 290 293 293 267 257 265 280 293 299 281 272 263 257 256 253 249 247 238
290 287 286 297 288 287 268 274 272 273 272 266 268 270 265 164 196 260 262 268 270 275 264 273 271 263 260 306 289 276 275 274 273 282 277 264 268 278 281 286 290 292 302 304 285 281 260 270 278 306 296 284 272 267
289 285 283 280 283 278 287 277 275 272 269 267 268 268 265 265 261 263 264 271 278 279 274 271 267 269 264 277 272 280 270 273 280 269 275 278 283 276 263 274 273 275 295 304 313 333 358 355 327 298 268 261 255 266
295 285 282 274 272 285 282 282 281 283 277 273 277 270 272 272 274 267 265 268 268 271 278 269 274 280 308 326 308 272 284 282 270 277 274 272 281 280 282 285 280 271 290 288 301 315 331 343 341 335 314 303 365 347
309 293 281 276 275 277 284 287 283 273 276 287 273 275 277 275 287 283 275 278 279 278 276 278 275 283 268 289 299 291 287 299 293 277 279 282 270 280 280 267 279 284 292 295 309 315 329 337 334 324 328 324 361 360
326 269 285 193 275 279 278 278 283 286 279 276 284 286 281 278 282 281 283 273 275 274 276 276 267 272 279 305 302 305 308 299 297 286 281 280 282 281 276 276 277 294 292 306 314 336 349 330 325 367 373 367 361 362
140 161 152 171 286 172 135 261 150 264 265 278 263 280 277 274 278 280 273 273 277 284 272 275 285 271 335 340 278 293 310 312 303 302 288 292 292 288 282 290 293 295 306 315 336 335 317 395 406 355 343 338 336 338
356 338 316 314 297 280 276 278 281 282 287 282 280 278 274 274 276 267 269 280 282 278 274 283 283 322 320 300 309 292 293 310 312 306 302 302 306 309 294 298 305 316 334 332 367 382 364 343 332 325 317 312 313 315
390 343 332 314 298 293 283 285 278 284 286 280 275 274 272 277 283 282 281 287 286 279 283 280 313 316 307 317 306 293 312 308 301 298 301 307 307 302 309 320 332 350 361 367 353 336 323 311 306 303 298 295 295 295
256 303 346 328 316 292 285 284 281 281 281 281 277 276 268 272 283 285 281 284 291 284 287 285 313 300 300 313 307 301 302 309 314 306 298 302 309 317 318 347 350 337 338 327 317 308 300 293 287 285 282 285 400 340
322 542 368 345 328 296 293 280 280 283 289 279 277 282 273 270 285 280 283 284 287 288 291 288 289 335 324 323 317 315 310 305 305 312 306 319 295 348 339 308 361 333 318 307 292 287 290 438 437 428 443 425 423 461
525 534 524 344 335 302 275 280 292 290 286 284 287 286 290 286 281 295 286 286 291 294 288 283 319 317 313 308 306 305 312 305 310 335 354 341 330 383 340 324 314 314 291 290 353 437 454 457 418 420 439 418 394 458

GFSWCAN_2pvu_pres_054.txt.gz
Presure
225 221 173 199 237 317 305 311 127 306 288 298 308 302 307 287 311 305 290 287 290 294 284 289 295 282 280 335 379 296 251 250 255 271 269 246 239 237 238 292 293 293 243 219 217 214 212 211 224 227 216 238 231 238
177 179 177 311 210 297 288 263 152 133 285 319 307 302 296 308 302 298 301 301 296 292 293 295 291 289 287 340 363 350 275 243 238 262 251 244 236 232 227 226 226 221 218 214 215 216 219 226 226 222 211 239 241 235
279 292 325 279 267 306 262 265 300 300 294 322 313 305 303 315 292 301 306 301 297 297 302 288 285 293 335 349 350 288 311 254 247 227 251 239 235 232 227 226 226 227 225 223 221 224 222 213 212 214 242 246 238 238
300 311 270 296 316 348 147 345 307 310 319 346 322 302 318 307 300 304 307 311 311 309 320 384 416 370 354 347 333 338 335 283 254 225 250 241 242 232 230 226 224 221 221 222 222 217 218 215 220 219 240 244 244 235
269 270 271 349 362 352 277 343 263 336 355 275 324 324 309 302 307 314 316 310 334 476 575 458 401 356 340 327 317 327 338 304 259 252 224 250 240 236 233 228 226 223 222 221 218 218 227 225 218 217 244 237 236 238
291 307 369 381 369 358 351 304 229 325 342 316 295 323 309 313 307 310 319 332 494 478 436 399 389 343 327 318 314 323 350 346 273 242 244 246 235 241 234 234 226 225 222 223 223 234 219 221 218 217 222 244 240 234
318 371 379 374 337 336 178 134 348 178 264 320 322 310 302 305 302 309 323 457 433 394 381 369 356 348 330 322 322 335 329 333 278 260 240 242 255 242 237 238 232 232 230 232 233 236 221 216 211 216 222 225 247 247
363 369 366 368 353 350 340 343 248 217 322 323 311 303 298 301 296 311 321 426 398 374 352 340 325 323 320 312 309 310 315 326 330 259 252 236 250 243 240 237 239 238 231 229 229 243 225 222 221 222 212 226 234 249
372 358 357 356 351 348 342 350 335 319 322 150 309 295 292 298 91 307 388 387 364 346 335 326 318 303 311 304 307 314 313 316 320 315 258 252 238 238 233 243 232 236 231 231 227 238 229 223 221 216 206 223 225 226
355 363 359 344 263 346 344 343 216 324 311 308 292 294 278 290 294 295 304 361 324 335 325 320 314 301 308 310 307 305 305 309 314 318 321 267 251 241 236 242 251 232 229 240 229 224 237 224 213 221 216 221 219 230
354 357 312 253 344 96 352 333 230 313 301 301 285 285 279 281 285 296 350 365 341 336 325 317 317 311 310 305 297 297 295 296 299 304 311 313 291 263 243 235 231 239 230 233 226 214 214 226 219 210 221 221 225 223
343 354 280 230 337 337 332 326 312 311 291 284 283 279 275 221 278 286 290 346 347 329 326 312 317 306 302 298 289 287 285 290 288 289 291 297 305 312 286 251 236 235 228 232 241 226 224 214 222 215 221 222 221 224
331 333 329 328 339 319 323 321 322 295 309 293 279 277 274 266 274 278 276 286 311 324 313 304 219 305 296 292 286 282 282 282 279 276 275 276 281 289 298 306 266 242 236 239 232 225 226 227 225 214 219 227 226 233
352 329 318 319 327 334 318 335 309 291 300 285 277 272 280 272 271 275 266 283 311 295 318 311 204 162 291 289 279 279 282 275 272 266 265 263 264 267 272 276 288 302 280 243 236 237 237 232 226 227 229 225 229 233
349 317 317 320 317 325 316 305 291 291 283 283 277 267 278 271 269 279 260 273 272 293 293 340 301 316 304 285 275 270 273 271 270 268 262 261 256 263 269 272 295 286 291 292 301 267 246 241 237 234 233 230 219 232
318 314 319 312 312 322 313 295 300 280 292 279 271 266 264 267 266 269 260 267 261 281 263 298 284 291 311 294 289 276 270 270 265 268 263 258 255 254 253 260 274 285 298 308 270 281 292 226 262 258 254 248 249 257
322 315 322 312 309 315 303 315 303 287 279 280 266 269 258 266 263 263 267 260 263 266 271 261 304 295 276 348 301 284 285 281 275 258 252 250 244 245 249 253 252 276 271 284 289 284 252 268 268 270 271 274 273 267
313 311 312 309 309 307 303 305 286 279 279 269 273 266 267 262 262 264 262 256 263 261 263 273 263 294 299 290 270 334 347 288 275 265 259 256 249 242 234 227 233 242 248 264 268 269 284 282 262 251 272 262 247 253
308 308 309 306 304 298 311 305 294 281 271 268 277 265 268 266 267 268 260 259 264 265 257 153 194 249 277 297 291 294 268 301 323 295 272 265 263 259 256 250 243 237 233 231 238 248 253 260 269 271 272 274 272 269
307 166 230 298 297 324 313 291 288 277 272 268 265 271 261 266 256 267 265 259 255 265 234 191 263 261 258 252 275 293 289 287 280 264 295 309 301 281 272 265 263 256 255 249 241 235 234 231 227 230 232 249 250 261
302 294 295 293 296 301 316 288 284 279 267 267 269 264 263 261 258 266 261 260 254 262 267 256 262 254 252 258 271 280 287 285 282 278 281 287 266 254 268 291 296 296 277 269 267 267 264 255 249 241 239 238 237 233
298 291 287 287 295 296 305 291 278 276 274 267 269 267 263 264 258 260 260 260 254 267 258 260 260 263 258 258 257 270 268 280 285 281 279 275 268 275 282 286 292 270 262 252 249 278 281 291 289 281 278 273 269 264
302 293 289 286 284 290 300 301 283 278 271 265 270 265 265 267 267 265 266 257 259 148 266 262 259 264 267 268 258 271 269 262 262 286 285 276 275 279 277 277 269 272 275 278 278 282 285 286 286 277 275 269 266 275
323 301 291 283 282 295 288 285 288 277 279 276 263 263 266 265 262 260 263 263 259 260 259 254 257 262 265 277 275 270 272 265 264 265 286 281 279 277 274 274 274 282 284 282 279 274 275 278 276 277 290 295 311 318
318 305 295 281 284 278 280 283 299 295 287 275 271 271 271 272 272 273 270 272 263 263 262 259 262 264 257 266 261 264 271 272 284 296 318 307 265 264 283 274 276 277 278 285 290 283 296 297 279 276 283 295 306 309
322 323 307 288 283 288 277 277 281 294 288 282 274 273 278 267 269 265 266 267 265 265 265 264 260 267 264 268 273 276 278 275 275 270 305 307 313 278 295 296 298 289 282 281 282 287 283 280 280 285 290 299 313 317
333 323 312 313 294 286 280 279 282 281 286 282 280 283 286 287 284 277 274 270 270 269 268 270 271 270 276 279 280 274 272 266 272 274 278 317 301 304 301 300 300 306 305 294 288 290 291 292 293 301 308 311 326 338
332 329 321 324 319 300 289 129 282 278 278 278 277 281 146 155 271 268 271 267 267 273 275 266 273 285 275 274 277 290 269 277 275 276 315 332 284 298 331 321 322 316 312 315 310 310 309 313 312 313 322 335 355 377
349 360 362 340 328 321 313 264 155 264 282 142 167 274 283 282 280 276 271 269 275 277 275 273 277 274 272 271 277 275 278 282 278 285 333 291 315 306 302 304 320 323 320 310 309 314 314 318 329 338 361 358 360 356
345 353 356 376 356 311 313 319 305 228 294 286 281 279 280 280 281 277 275 274 275 275 277 281 280 272 278 280 279 278 280 283 303 316 336 327 315 315 326 323 319 320 319 322 320 327 335 351 360 333 335 338 329 322
346 359 206 112 236 319 351 285 321 324 316 297 292 278 281 284 280 279 279 280 278 277 283 284 279 279 280 293 292 285 285 283 290 302 293 327 326 321 326 323 321 323 328 336 352 359 376 382 356 335 324 318 315 310
270 350 330 204 225 369 405 274 350 342 344 315 283 284 280 281 282 281 277 278 281 276 279 283 280 273 281 290 292 290 291 294 290 335 333 329 320 318 305 310 332 360 369 350 378 333 321 316 314 311 304 297 292 292
486 410 402 349 427 275 260 433 411 359 343 309 287 287 280 279 282 282 280 285 277 273 277 280 285 288 290 294 296 289 289 326 322 318 315 300 295 324 342 359 331 385 365 323 315 306 298 297 351 505 494 485 570 486

GFSWCAN_2pvu_pres_057.txt.gz
Presure
215 227 165 273 276 288 305 217 282 353 250 358 346 340 124 300 294 341 305 298 301 293 302 292 286 287 291 294 274 266 278 319 264 245 255 269 262 261 260 252 246 245 244 235 231 227 222 266 279 267 233 217 212 218
245 236 267 269 280 282 286 273 308 293 369 355 349 343 323 307 316 315 331 307 305 299 299 297 275 288 287 284 275 277 285 373 311 261 244 266 277 269 239 236 238 237 227 223 280 287 243 216 209 216 213 226 218 216
289 287 268 278 305 288 295 202 200 370 372 359 349 200 356 333 315 325 292 310 307 305 300 296 286 290 277 283 294 299 295 343 335 284 250 223 271 242 235 234 248 308 299 251 217 216 211 213 213 219 221 218 213 235
261 200 281 302 272 289 168 283 232 372 369 358 348 151 342 330 314 326 307 307 309 309 301 291 296 294 290 293 318 341 317 350 346 317 263 250 222 243 233 231 226 226 222 218 215 213 218 220 223 220 217 217 233 228
146 128 270 283 307 292 311 366 309 372 362 359 360 127 175 317 329 317 308 305 309 313 311 316 332 499 419 377 352 335 346 332 334 337 278 250 262 238 232 229 228 221 219 222 223 222 223 220 219 215 222 221 228 245
184 222 287 164 285 296 324 301 299 367 356 355 349 326 340 327 320 315 114 232 310 323 383 497 532 490 431 364 343 344 331 320 327 334 332 251 256 242 236 225 225 228 223 222 218 224 221 214 222 218 216 218 228 237
200 312 309 272 297 177 296 373 363 357 350 297 336 343 336 323 319 315 310 313 316 450 445 418 396 426 378 346 337 328 319 308 317 334 344 259 233 256 233 236 227 224 225 226 220 224 217 216 230 223 219 217 212 218
229 256 367 338 194 362 379 215 366 352 341 352 345 340 296 313 310 291 306 312 319 409 402 379 383 379 362 329 315 314 308 316 331 343 341 266 242 233 248 244 234 227 224 226 225 224 223 225 227 220 220 211 214 209
343 333 430 180 354 348 366 356 357 341 360 347 287 324 317 299 307 300 308 318 394 379 368 356 346 340 337 328 331 322 318 312 323 328 322 270 251 237 239 249 235 231 229 228 227 229 228 228 229 229 224 222 213 218
147 329 423 421 348 369 355 354 351 337 353 337 334 321 296 298 303 296 289 312 354 355 346 335 321 322 318 314 309 318 314 314 311 313 326 312 254 250 247 235 254 241 234 232 229 231 232 232 225 240 224 220 216 213
142 308 221 386 344 326 341 345 342 334 321 323 317 311 303 295 287 295 289 303 323 332 341 306 315 312 301 306 315 311 303 305 301 309 305 312 271 262 253 245 236 253 245 218 233 233 234 229 222 228 228 220 221 213
418 407 394 348 367 344 338 340 344 179 328 322 312 302 301 285 279 289 286 291 296 335 322 310 313 325 312 309 286 295 299 299 297 294 296 301 311 296 263 253 246 237 239 239 242 229 233 227 227 222 227 229 226 210
392 381 376 359 339 338 330 331 329 329 322 320 303 308 290 271 282 284 286 283 295 332 334 306 319 311 312 299 296 291 289 288 284 284 285 287 290 295 302 310 258 249 236 238 228 238 238 227 231 227 218 214 215 218
370 355 357 339 338 320 323 336 322 326 312 321 302 291 290 279 274 278 281 282 280 285 302 306 307 317 293 299 290 285 286 283 282 278 277 281 277 279 280 284 287 302 281 249 236 236 234 231 234 236 229 227 226 223
353 367 353 342 363 332 323 312 325 319 309 310 303 294 285 269 271 272 275 278 270 284 292 295 304 314 303 291 295 278 279 280 281 277 273 272 272 269 274 279 276 275 291 295 297 250 242 237 236 237 233 229 225 225
344 347 329 338 299 307 312 309 301 313 306 311 294 292 276 273 266 267 265 268 263 269 276 277 282 290 314 316 299 290 286 284 277 274 266 261 266 268 263 267 270 269 272 297 300 326 292 276 247 244 238 237 238 235
347 317 344 294 303 311 316 316 310 309 329 310 282 281 274 274 262 264 265 266 259 255 261 276 272 272 297 290 313 307 301 295 284 273 270 264 259 261 260 266 266 269 269 280 287 292 307 317 281 288 297 266 252 247
326 317 339 311 310 316 305 292 314 308 306 294 283 268 282 274 264 264 260 258 268 256 247 259 264 268 262 261 276 285 291 333 314 277 274 270 262 255 248 247 248 250 256 261 268 274 277 285 293 295 265 267 282 281
320 337 322 305 296 308 302 211 197 301 300 287 280 272 273 273 266 260 261 258 256 261 255 266 257 261 260 203 178 276 290 289 279 303 334 291 273 262 259 250 242 239 237 235 234 239 245 254 264 269 275 282 285 283
293 297 307 311 307 303 311 306 303 303 290 283 281 275 269 270 273 261 259 263 261 259 252 257 271 257 266 258 267 261 250 262 289 286 284 266 310 310 291 273 266 260 256 251 244 239 237 236 236 233 232 234 240 243
332 304 305 307 301 303 306 298 297 296 290 318 282 271 264 274 258 264 257 262 262 248 255 262 251 262 262 249 257 255 258 261 269 290 292 282 276 280 272 261 264 298 306 308 289 271 263 257 254 253 247 242 240 239
306 297 173 300 297 297 298 298 300 289 296 314 286 268 268 269 259 262 260 262 257 254 260 263 260 258 263 249 256 263 265 251 251 258 270 271 285 295 281 273 270 272 280 284 269 266 261 269 278 284 288 288 288 286
303 304 301 295 297 293 291 294 291 288 306 298 298 276 273 273 265 261 260 261 261 258 257 260 253 255 259 265 263 261 260 256 262 265 258 262 261 266 269 285 290 282 279 277 274 272 274 277 279 282 282 283 283 283
319 308 303 293 297 286 286 286 285 289 311 293 285 280 277 266 266 265 263 265 259 258 259 265 267 264 258 259 257 252 253 260 259 261 266 262 270 263 260 276 293 298 292 289 284 281 280 282 285 284 282 274 275 276
319 316 302 291 295 294 287 281 279 287 313 297 280 281 275 277 264 268 268 263 265 266 258 263 265 254 261 262 253 257 258 256 259 259 265 263 262 271 274 270 292 265 316 302 288 288 286 289 288 287 286 286 288 291
323 310 308 313 311 305 290 285 283 282 285 307 299 281 278 271 273 277 274 267 262 260 260 269 271 268 257 258 263 259 262 255 268 267 274 271 287 276 282 283 271 269 307 293 309 315 304 297 294 297 298 298 292 287
314 312 313 320 319 323 306 291 289 285 282 283 287 306 288 284 279 271 274 278 277 274 272 264 261 261 261 262 261 263 262 266 270 273 276 276 281 284 271 270 274 276 280 280 316 321 309 312 310 310 318 317 313 311
312 305 302 313 314 317 325 318 307 289 287 284 285 292 294 279 277 284 278 279 274 274 274 273 268 266 278 277 264 262 265 264 273 273 278 279 281 277 272 279 285 281 289 336 333 281 332 309 323 315 316 322 329 333
336 345 155 323 317 323 332 333 321 319 303 155 215 291 279 279 284 295 297 203 281 278 281 275 277 270 267 266 272 276 280 274 276 280 270 279 279 277 285 284 288 287 282 315 311 311 318 316 322 334 332 327 327 330
317 321 330 339 346 347 340 334 341 341 332 321 306 219 286 285 282 284 282 286 286 281 275 273 274 272 274 275 279 274 276 278 273 273 278 286 294 293 295 289 286 329 306 297 313 337 340 336 331 326 332 335 340 349
344 344 344 357 313 307 357 337 257 357 345 342 342 329 299 293 284 285 279 278 281 284 282 277 275 276 275 279 276 274 280 284 283 280 286 295 294 290 292 295 294 344 353 344 338 323 307 326 343 359 385 393 369 341
307 339 340 352 360 306 127 363 364 376 395 384 357 353 358 316 290 287 283 284 284 279 277 281 283 284 281 280 279 278 285 287 279 279 288 294 302 291 313 286 335 307 303 304 345 368 322 385 390 339 328 323 316 313
409 427 408 393 410 199 347 242 237 257 267 382 381 379 369 356 305 291 292 288 271 274 280 288 285 278 278 279 278 279 283 287 289 294 303 302 324 288 306 299 294 359 360 319 392 373 327 318 310 303 299 306 395 519

GFSWCAN_2pvu_pres_060.txt.gz
Presure
144 224 193 177 266 258 261 259 267 276 278 183 225 295 358 370 369 363 342 347 324 302 321 308 297 295 280 289 274 284 278 273 275 281 293 252 277 261 256 253 254 251 249 249 251 255 260 267 265 264 260 251 247 243
206 231 241 269 253 265 250 231 277 259 158 299 153 365 280 370 303 350 135 325 311 313 323 309 294 291 296 286 282 284 286 258 266 275 298 267 252 272 261 250 246 246 247 247 244 242 243 242 244 245 240 224 223 264
247 169 185 257 177 161 232 267 241 262 142 199 386 365 381 366 381 362 311 323 338 331 321 307 296 297 289 284 283 283 283 285 282 271 280 337 254 267 264 264 259 251 248 247 237 234 232 225 226 256 277 257 218 213
162 248 166 259 209 253 216 143 202 260 280 341 394 373 369 364 364 357 324 331 341 336 308 300 298 296 290 294 289 285 282 282 290 295 300 344 284 262 271 265 247 242 240 228 225 239 289 283 249 216 210 215 227 217
172 241 247 136 230 181 221 210 262 168 281 143 384 357 367 376 362 331 279 346 333 324 308 307 301 300 304 300 295 289 290 293 294 315 341 351 333 257 273 245 236 239 233 274 298 285 219 216 212 216 224 224 218 218
160 247 153 147 213 136 241 146 281 142 436 370 107 354 358 350 352 339 346 331 316 312 314 311 312 315 679 560 425 373 357 335 331 326 336 335 345 262 267 241 236 241 280 258 226 219 215 212 218 224 222 227 217 223
202 243 245 133 137 231 210 181 271 129 407 377 388 367 364 358 342 342 321 320 320 314 322 348 471 549 521 503 451 369 339 331 323 324 326 329 343 268 268 243 233 226 224 223 221 217 217 222 221 222 223 227 225 220
186 238 250 164 226 116 249 177 325 134 383 280 312 365 344 352 340 326 317 312 310 307 330 429 430 417 392 384 372 345 334 324 322 324 317 322 332 305 262 250 233 224 217 224 220 221 221 217 225 223 221 228 219 217
231 145 152 127 171 259 186 405 424 134 191 166 368 339 325 262 330 317 309 309 304 300 407 396 394 374 354 343 345 342 343 325 316 310 310 331 352 349 261 260 237 234 228 222 224 222 221 217 222 217 215 228 226 215
126 174 107 173 239 338 149 346 161 403 361 307 354 352 339 330 321 307 301 298 300 301 356 368 358 357 348 334 328 322 319 316 309 321 322 329 326 330 257 263 237 237 232 230 218 225 223 223 220 219 223 219 228 215
150 172 136 193 130 140 150 426 404 387 372 357 261 345 336 321 313 295 297 297 295 299 311 329 331 320 323 319 317 317 314 311 314 309 308 305 308 317 262 250 264 240 238 233 232 226 224 224 223 223 225 224 216 228
226 204 216 130 332 458 412 405 385 372 360 345 348 338 333 311 302 295 290 292 289 292 326 333 318 315 313 310 320 313 307 303 298 298 296 296 308 305 308 254 248 255 251 243 234 234 232 228 227 224 229 230 224 223
162 123 119 539 429 388 395 385 368 355 351 333 340 332 315 299 287 292 283 287 285 290 341 313 315 327 314 314 310 306 301 297 295 291 290 294 297 301 309 262 256 253 246 240 255 251 241 236 237 230 228 233 227 224
344 114 435 128 210 343 389 366 353 347 331 339 331 322 319 296 287 281 282 283 279 289 284 324 295 312 306 305 296 302 296 292 287 283 286 290 291 293 294 297 274 262 258 248 243 237 238 256 238 242 226 235 231 230
197 108 353 362 356 350 355 127 198 331 317 333 327 319 309 284 282 274 277 278 275 278 282 305 288 314 306 296 295 290 291 286 287 283 281 283 281 282 283 284 284 296 303 289 264 251 246 238 237 237 238 236 235 231
102 333 354 339 299 347 338 340 324 328 327 318 320 321 291 291 280 277 273 267 277 268 277 279 288 316 312 305 298 292 293 289 282 282 272 273 279 275 273 273 274 279 279 294 294 296 310 265 249 241 235 236 237 237
357 335 332 169 335 349 320 331 327 342 328 317 306 298 283 283 287 274 272 267 272 270 265 266 281 273 273 295 297 311 312 300 283 275 278 274 269 261 266 259 268 268 280 283 285 285 294 306 308 326 294 257 248 244
328 330 345 341 350 331 346 314 323 324 301 311 303 293 290 292 277 277 267 269 266 270 262 260 267 261 270 281 295 292 288 282 302 294 274 276 268 266 261 259 258 259 257 265 269 269 272 277 292 297 302 304 291 287
318 328 338 334 334 320 318 312 306 294 312 307 301 310 293 290 277 273 265 263 261 259 260 263 260 256 262 261 265 260 264 281 280 284 274 302 318 286 272 261 258 251 249 246 247 247 247 254 262 267 269 274 281 288
338 332 329 329 326 324 312 285 296 308 309 302 302 301 298 288 275 276 268 258 258 261 259 254 267 263 264 264 263 260 264 260 254 260 284 289 287 280 313 311 271 262 259 254 251 249 247 243 240 237 237 238 238 242
331 318 309 317 333 314 301 301 316 317 303 299 300 314 294 284 278 260 272 262 254 248 251 258 263 248 247 261 264 256 259 257 257 263 265 266 281 292 287 282 278 282 288 291 297 304 280 262 260 258 252 251 250 249
317 323 318 300 296 303 287 296 287 307 307 308 293 297 301 282 272 270 262 263 257 248 254 258 263 250 254 261 250 263 258 255 256 264 255 261 257 260 266 269 274 283 289 284 279 277 276 273 275 277 282 286 287 288
317 315 313 205 300 303 305 298 299 302 305 301 293 288 308 283 273 269 265 256 272 258 249 260 264 254 257 261 269 258 262 253 251 258 259 255 259 263 261 262 263 262 265 268 268 277 290 291 281 278 276 277 278 279
320 262 302 312 313 301 295 291 298 301 303 299 294 288 281 295 277 269 266 263 258 259 256 260 258 261 250 254 257 252 252 249 256 257 251 250 257 258 258 262 270 263 264 273 269 265 272 279 279 292 298 294 292 284
322 332 271 276 303 295 297 297 294 290 296 296 295 291 289 323 292 278 268 265 263 265 265 261 262 263 260 255 256 265 265 251 248 251 250 251 255 259 260 261 261 268 270 283 282 280 286 269 274 274 280 316 317 300
319 316 303 307 324 299 298 293 294 294 291 290 289 287 283 319 317 290 281 268 261 264 267 266 266 267 267 269 264 267 264 252 255 251 255 259 261 262 259 267 270 277 275 283 286 286 275 273 273 274 275 280 282 284
318 314 317 312 315 306 301 297 293 292 294 288 288 288 284 301 306 307 289 278 273 273 273 268 264 266 264 269 258 263 270 267 259 261 260 259 265 265 267 270 272 280 284 281 283 278 281 278 286 288 280 283 329 339
305 301 299 312 305 321 336 309 299 296 291 291 289 285 286 286 314 300 296 291 284 282 281 277 272 274 278 275 277 278 264 260 262 263 262 266 268 272 274 277 282 280 274 275 280 281 284 282 281 286 288 290 289 345
306 293 93 96 332 334 337 333 325 315 304 301 298 292 285 283 283 286 304 296 286 282 282 279 272 270 269 270 273 276 278 266 275 269 269 271 275 283 279 279 275 272 274 279 288 294 297 294 290 290 335 311 331 353
326 325 323 323 326 328 328 329 331 334 337 342 332 293 290 288 253 136 284 283 287 307 298 291 290 277 274 276 285 275 272 267 268 272 275 280 282 279 279 274 275 278 282 291 295 293 296 298 304 362 355 348 343 329
320 324 328 334 325 330 343 338 340 349 357 354 367 358 336 255 312 302 293 289 290 287 289 297 291 284 289 299 297 286 273 275 276 277 278 280 280 279 280 284 286 281 285 305 305 301 290 325 324 311 304 333 347 369
320 339 347 348 349 344 341 343 345 346 342 342 149 378 400 370 349 321 316 305 304 296 293 292 286 286 283 284 283 284 284 282 281 280 282 280 280 282 285 285 292 301 304 305 291 304 306 299 320 348 391 391 351 339
335 347 353 369 360 357 359 353 362 374 311 362 371 384 400 391 404 352 347 340 334 315 298 287 286 284 281 284 282 280 281 285 288 282 283 275 275 280 291 305 306 295 292 304 301 304 320 340 363 332 324 315 307 302

GFSWCAN_2pvu_pres_063.txt.gz
Presure
143 134 125 208 143 142 233 186 270 116 140 150 161 227 264 179 153 276 300 377 388 367 351 337 319 320 320 299 294 287 283 283 284 272 277 285 262 274 260 253 260 260 271 271 264 263 265 257 247 245 250 244 240 244
141 164 122 140 129 196 234 161 177 130 143 216 242 168 149 240 212 223 301 378 307 363 347 341 319 307 323 300 288 288 275 278 280 288 271 264 287 259 275 255 256 257 255 260 269 268 263 259 262 262 258 263 260 260
244 132 142 140 125 229 262 173 162 138 213 185 256 234 167 133 201 175 309 361 295 365 343 331 326 315 328 302 288 290 281 280 279 277 283 262 263 292 256 271 256 250 254 251 251 254 260 262 266 269 265 264 265 261
117 144 143 149 144 204 201 179 174 138 232 118 167 247 241 139 248 272 389 384 376 367 333 331 333 331 318 293 287 286 283 281 286 281 284 281 281 268 290 253 270 257 247 249 250 248 242 245 246 248 251 251 255 240
103 160 235 103 154 155 207 214 213 152 123 243 258 264 239 128 293 373 364 377 365 347 338 341 338 318 306 296 294 290 286 281 280 280 283 281 287 296 276 283 267 265 263 255 255 250 247 246 241 234 227 226 238 266
128 205 100 223 167 184 180 182 162 109 118 197 216 265 283 195 283 371 378 370 356 354 349 333 318 303 306 301 298 293 286 284 281 284 284 287 289 292 313 342 264 270 273 257 249 243 231 227 226 272 290 230 209 216
145 167 119 97 96 206 137 136 134 233 258 264 158 182 141 293 136 372 190 350 356 326 324 323 310 314 312 321 322 313 299 296 294 292 293 304 329 326 327 336 298 275 263 244 243 232 226 291 295 221 217 212 217 222
242 159 188 205 190 178 193 143 162 168 120 226 211 289 281 138 369 369 327 362 336 324 319 316 313 380 539 576 568 531 412 365 350 339 312 322 319 318 319 318 346 273 255 236 258 298 301 241 218 215 213 216 230 220
141 136 149 153 229 247 247 136 165 127 262 245 202 243 348 137 197 325 350 337 315 312 314 314 362 388 391 399 418 390 353 344 349 324 325 311 317 309 310 320 346 271 253 234 276 265 234 224 220 218 218 221 222 223
139 157 235 117 194 145 149 170 108 195 301 275 183 405 366 360 353 340 106 320 311 297 307 300 365 377 370 359 354 343 332 335 328 317 317 269 316 321 319 338 358 263 249 241 235 230 227 225 222 220 225 220 225 223
162 180 127 171 175 138 246 153 123 201 136 151 309 382 362 349 332 340 305 308 257 295 299 302 357 346 358 354 346 337 332 330 326 326 325 318 311 308 308 325 348 261 248 241 232 235 225 225 224 222 221 221 224 222
147 194 128 188 214 168 137 266 180 310 120 402 179 371 349 339 336 332 315 301 291 290 294 322 340 339 341 339 332 328 326 326 324 313 298 294 295 296 307 319 336 268 253 240 236 230 234 224 226 224 224 224 225 223
252 164 165 111 116 149 135 149 187 124 393 371 327 353 340 313 327 321 300 295 285 284 286 297 323 326 320 320 321 320 318 312 306 294 292 299 293 299 300 313 324 261 259 248 238 239 234 233 224 225 225 224 220 222
168 137 158 159 129 196 100 120 150 350 368 354 351 127 337 328 313 302 303 288 279 280 289 285 320 329 315 316 321 310 308 304 300 294 292 289 296 295 295 299 309 310 254 257 252 237 236 237 236 234 231 228 228 227
174 141 286 168 472 282 235 352 368 219 349 346 340 330 232 309 305 300 294 284 278 275 287 285 315 321 313 312 305 302 301 298 296 289 285 285 287 290 289 289 298 299 276 253 246 251 251 248 234 232 238 236 234 233
248 431 139 417 401 377 372 125 113 347 334 337 268 316 314 317 299 299 287 278 272 273 274 274 308 311 303 307 298 296 299 293 285 288 286 282 287 280 283 283 286 289 305 296 265 255 249 248 246 244 245 248 250 243
460 406 403 387 375 351 337 350 344 329 335 327 319 306 307 309 295 294 282 276 270 274 272 270 282 301 304 305 303 304 295 289 295 289 282 285 283 280 282 280 276 280 283 284 284 290 292 299 306 312 258 251 245 240
120 377 364 143 273 172 338 333 253 287 319 314 321 307 304 305 294 290 282 273 266 269 273 267 268 280 281 302 302 305 302 298 273 271 270 274 278 275 271 270 277 277 268 277 280 281 274 276 279 286 293 309 314 323
366 356 343 350 331 340 333 325 323 326 314 319 310 308 306 309 301 286 279 274 264 271 263 271 264 262 267 268 271 278 295 288 292 303 310 306 294 280 275 273 269 266 263 261 261 255 260 262 263 260 264 269 277 282
340 338 338 321 321 331 320 319 326 306 314 313 330 310 302 296 303 287 273 274 264 263 260 260 264 267 266 267 268 261 275 263 261 283 287 286 287 289 295 314 314 283 273 270 266 263 260 253 252 252 252 250 251 252
334 333 316 321 311 318 325 324 322 331 310 310 324 300 305 298 290 286 292 274 264 261 252 257 277 257 258 255 259 265 258 262 261 269 265 258 251 258 288 288 285 279 288 298 297 289 279 271 264 260 258 256 254 253
332 321 319 317 310 322 330 311 308 315 309 305 291 294 296 295 287 282 292 270 264 257 257 257 259 256 255 249 255 259 256 266 258 259 256 258 261 261 262 263 265 264 267 271 273 280 287 291 284 282 281 279 281 286
316 317 318 317 312 315 317 324 313 310 303 318 303 296 293 304 288 291 295 280 267 255 259 253 255 251 253 252 260 254 245 259 250 252 251 254 250 254 256 256 258 260 261 263 263 264 265 269 273 273 269 270 280 288
304 313 314 298 304 320 288 294 305 306 302 303 306 307 290 291 290 283 296 286 270 262 251 263 256 258 250 257 254 256 264 261 263 255 254 255 256 253 256 259 255 253 260 261 260 261 264 270 270 265 267 280 276 275
294 306 307 311 298 308 316 292 284 302 301 293 293 295 293 294 293 284 297 294 275 272 260 254 270 254 261 256 258 259 258 267 256 250 251 253 251 247 248 249 250 252 254 257 260 262 264 265 275 282 280 282 284 279
307 310 310 320 323 311 237 304 307 296 300 297 296 296 297 293 293 283 343 296 287 276 272 260 258 258 252 259 257 257 262 256 256 259 255 255 267 248 247 248 254 253 258 259 265 266 265 276 276 283 283 278 282 278
299 306 310 315 313 321 319 311 311 304 299 296 296 296 295 296 293 286 283 310 291 283 276 269 266 262 259 257 258 261 262 266 260 271 269 265 264 266 248 242 253 257 257 263 265 273 279 281 287 284 278 276 279 281
305 314 314 316 317 323 323 304 283 298 294 293 291 293 289 290 292 293 290 284 283 291 286 282 280 272 265 263 261 263 266 271 262 274 267 255 250 260 258 253 254 262 263 271 278 285 285 284 280 278 276 281 287 293
316 318 320 322 325 326 326 330 320 314 316 305 294 296 294 294 295 293 293 291 286 286 320 290 289 285 279 274 274 275 275 273 269 263 270 276 274 263 259 264 265 269 278 279 286 284 281 281 281 281 286 285 292 299
304 303 305 217 312 315 315 319 325 323 323 318 317 300 298 297 299 126 291 290 292 288 288 313 317 302 286 288 285 272 282 273 280 272 273 274 266 269 270 272 267 277 280 285 282 281 285 286 287 287 282 289 308 311
299 304 305 309 311 315 318 325 334 345 359 358 360 345 324 318 308 304 301 295 294 292 291 295 319 313 313 312 305 280 292 289 284 281 274 279 286 291 298 280 284 285 281 280 282 288 285 289 283 290 306 310 304 307
305 307 312 314 315 329 334 340 337 338 344 350 357 361 363 364 356 337 306 305 311 308 303 227 296 294 294 299 293 295 290 296 297 299 314 293 285 282 286 290 291 290 288 287 277 287 280 298 315 311 308 310 306 316
346 350 353 349 344 338 342 314 325 332 344 357 360 370 382 378 359 403 384 338 361 357 350 334 316 306 295 289 289 289 281 282 285 285 285 282 287 287 288 291 289 287 279 295 286 303 315 312 312 308 312 340 395 340

GFSWCAN_2pvu_pres_066.txt.gz
Presure
130 115 159 151 161 136 132 144 123 134 131 143 162 188 153 152 152 230 137 211 210 183 290 319 227 357 335 322 316 291 301 289 283 277 271 274 280 280 268 271 259 260 276 281 272 275 282 269 270 261 262 269 255 246
132 184 121 161 132 140 151 120 105 149 149 143 135 221 241 177 240 231 138 260 162 138 288 385 356 365 338 331 324 299 313 295 285 282 275 273 272 272 288 265 269 258 260 269 280 264 273 267 261 265 262 260 257 258
159 111 185 222 161 159 146 138 143 155 156 249 166 177 239 134 238 129 137 246 266 150 266 366 363 355 343 339 330 294 319 294 275 285 278 269 274 274 265 285 267 263 257 260 261 275 259 264 269 259 256 247 253 256
115 128 156 147 163 138 120 132 139 145 229 230 166 221 255 223 149 232 187 214 239 334 367 348 367 352 337 322 322 322 318 300 284 287 284 280 278 268 271 259 280 263 264 255 259 254 266 271 260 264 260 257 258 258
183 134 115 138 90 228 163 172 211 201 170 242 228 281 230 174 157 116 168 248 376 366 140 140 358 349 338 331 329 323 318 289 278 285 286 280 280 280 276 269 259 265 267 262 255 249 251 251 260 269 268 265 267 261
118 110 127 143 93 234 144 195 157 254 237 153 122 236 134 227 182 146 258 265 152 365 149 350 353 340 341 334 328 318 314 285 288 289 285 282 273 275 271 271 268 290 264 267 263 251 248 245 244 247 250 254 260 260
179 213 191 149 159 98 104 129 131 199 244 257 252 212 257 128 263 183 220 251 387 365 141 161 334 326 322 313 309 307 299 291 289 289 286 284 272 280 269 270 282 294 289 285 269 263 248 249 244 244 249 248 247 230
150 162 228 166 165 125 139 122 132 212 131 232 242 157 127 171 209 196 461 394 356 236 359 161 313 321 319 312 315 308 305 299 294 292 282 280 280 277 280 270 282 305 332 271 279 270 262 255 252 245 239 226 230 247
200 229 130 105 110 230 140 142 155 141 127 151 188 183 206 274 230 145 142 258 348 334 329 312 102 313 329 388 550 602 553 528 364 311 304 297 291 288 287 290 309 328 318 321 337 271 274 252 251 234 224 262 285 231
138 215 124 124 191 217 123 243 128 120 251 231 235 237 165 138 159 134 354 347 328 328 309 300 305 302 334 366 383 384 384 390 384 364 354 355 333 321 319 308 298 318 317 324 335 275 271 246 245 230 277 294 216 218
128 173 89 249 158 157 112 123 230 256 261 198 263 237 274 134 165 146 344 339 328 311 304 297 297 301 354 361 359 339 342 334 327 327 338 333 330 317 318 313 316 328 331 351 355 275 257 242 262 270 281 226 224 215
155 177 229 229 149 110 163 196 179 183 196 189 142 215 160 248 132 373 346 328 317 299 300 293 298 305 356 357 337 332 332 327 326 331 325 324 332 317 306 305 308 312 321 337 273 272 250 243 287 263 237 226 224 224
115 149 142 127 139 210 181 152 143 162 142 138 272 242 375 307 256 343 327 322 307 294 294 289 289 319 333 335 330 333 329 326 327 320 320 305 296 297 304 302 309 311 320 328 263 267 247 243 250 230 236 215 222 226
201 138 150 148 178 174 263 255 214 251 149 258 374 190 119 387 344 323 292 320 296 291 285 283 287 317 318 316 322 320 318 327 325 305 299 298 299 297 294 292 295 300 309 318 261 262 247 236 237 238 224 229 233 213
121 122 149 141 151 149 153 147 149 152 158 159 177 358 266 362 322 321 312 313 293 283 280 279 283 286 321 312 314 316 315 317 300 295 290 292 288 290 286 286 286 290 301 307 262 254 253 243 233 228 231 221 219 227
183 177 129 125 136 131 180 137 184 424 400 251 374 348 277 175 238 327 314 299 286 287 275 279 284 312 316 314 312 313 304 305 296 298 293 289 283 285 283 286 284 291 290 296 299 259 251 251 246 241 231 227 227 228
247 124 142 126 247 303 247 296 411 387 373 362 355 350 334 322 304 320 314 292 287 277 273 274 278 274 291 304 311 309 303 298 296 295 289 288 284 284 281 280 276 279 281 291 296 297 259 251 249 250 249 248 247 244
246 226 251 284 266 327 395 383 371 348 353 117 234 341 330 321 305 304 311 289 289 276 271 271 273 273 281 306 308 310 300 294 294 287 290 277 277 284 283 278 177 275 277 277 276 277 280 284 283 263 254 251 249 248
270 267 237 388 99 333 381 252 355 341 338 149 327 321 315 318 301 297 317 299 281 274 268 267 266 271 270 277 289 300 274 297 288 277 280 279 282 275 278 277 272 276 271 275 275 272 272 276 275 276 277 278 278 278
409 385 305 307 373 184 344 143 343 335 333 320 320 318 319 307 307 295 318 303 287 277 265 261 260 270 273 266 266 263 272 293 296 303 318 293 303 306 305 304 292 285 279 274 272 271 265 263 265 263 262 263 267 265
385 362 343 351 345 334 330 311 330 323 320 320 315 317 313 315 303 295 296 303 287 272 264 261 265 263 258 259 261 265 269 261 277 271 266 286 284 284 283 283 284 285 287 287 309 307 289 275 267 268 264 261 261 260
350 340 335 347 323 324 313 312 310 312 307 316 318 322 321 315 296 301 286 300 291 272 269 264 262 265 256 255 251 265 265 267 270 262 261 265 266 266 263 262 266 268 270 275 278 278 280 282 283 282 282 284 285 286
334 321 327 325 315 317 310 309 306 322 324 322 313 323 320 316 324 309 289 291 293 283 262 269 266 260 247 257 262 260 257 252 251 257 258 262 257 259 260 264 262 260 260 262 263 264 265 267 267 266 267 270 272 273
328 319 309 308 318 316 313 312 313 325 324 307 308 314 317 304 301 294 293 283 307 294 276 270 266 251 258 247 249 250 252 256 253 252 249 246 254 254 250 252 254 252 252 254 254 254 254 254 257 261 262 262 264 268
316 316 323 322 313 309 298 314 310 309 315 315 311 313 312 308 290 291 283 290 281 302 272 279 263 265 254 255 256 249 255 253 256 257 256 255 266 259 257 253 251 252 249 248 249 250 249 251 257 258 258 262 265 269
301 304 306 305 298 295 307 317 299 306 306 303 303 301 299 297 294 290 286 280 291 281 273 287 278 264 265 256 255 254 255 253 258 262 256 262 259 269 258 249 246 248 258 252 249 251 250 252 252 253 258 263 262 273
310 309 305 297 295 294 301 305 258 230 313 296 294 300 302 294 294 291 293 287 280 289 280 307 289 282 270 267 260 262 258 256 258 249 258 262 257 254 253 261 257 253 264 266 264 258 251 252 255 263 266 268 273 285
301 297 295 294 295 298 303 298 299 297 304 316 292 297 293 305 292 285 286 290 290 290 293 283 294 298 288 276 271 271 260 257 262 264 259 259 261 262 263 264 268 271 261 253 250 254 256 264 271 265 273 276 287 288
302 299 296 299 301 302 300 300 307 316 329 323 324 319 311 294 293 295 293 293 292 294 294 292 287 285 300 298 286 281 272 273 270 267 269 266 266 265 263 262 261 257 258 258 266 275 267 266 268 276 287 288 285 281
307 306 313 318 327 328 327 328 324 330 332 332 325 328 315 303 303 303 295 296 295 231 298 299 297 294 291 299 299 296 290 285 279 277 274 272 272 272 271 271 267 271 273 267 271 268 267 276 288 292 288 283 284 288
305 307 315 322 320 321 313 319 317 319 319 322 336 328 324 312 295 293 301 300 301 303 302 299 301 299 294 292 290 294 303 294 296 296 288 287 287 272 275 283 284 271 267 276 269 279 290 292 291 290 291 293 287 293
309 312 307 309 310 313 311 313 317 316 316 321 327 335 357 323 342 341 321 328 340 323 312 312 309 305 298 298 300 296 289 291 329 325 316 301 288 287 288 289 292 302 296 291 292 289 291 290 293 294 283 290 298 321
313 314 313 316 316 317 314 315 324 330 338 357 363 361 362 365 372 393 391 372 356 381 392 365 333 320 312 306 302 300 293 290 291 297 319 315 313 310 306 301 299 329 287 283 285 288 293 291 294 297 303 325 322 317

GFSWCAN_2pvu_pres_069.txt.gz
Presure
142 142 126 122 125 127 131 118 134 142 168 149 120 141 174 171 192 179 156 238 241 170 264 226 198 289 203 187 346 254 317 307 305 290 284 280 278 278 287 283 267 267 261 269 283 278 276 289 303 267 269 268 281 282
143 125 126 126 142 139 127 123 111 151 145 97 130 221 224 175 140 245 242 144 228 143 128 249 181 279 403 251 308 350 321 301 304 289 285 279 279 275 274 272 292 264 267 259 266 280 274 272 288 288 268 274 279 275
135 130 130 128 134 139 200 169 137 193 194 143 117 149 240 206 178 237 123 126 244 248 236 251 307 105 392 382 338 348 318 314 320 288 282 279 279 278 273 269 271 269 265 266 258 261 279 270 276 272 270 266 267 271
135 143 141 128 138 167 146 167 117 109 150 212 209 217 235 136 235 154 270 267 205 190 166 160 321 148 388 353 143 338 324 309 313 304 293 286 274 279 269 265 269 266 272 264 265 257 255 268 271 273 266 258 259 260
136 163 183 163 127 182 132 127 122 120 201 161 228 189 137 140 220 227 160 182 241 175 179 277 393 314 367 360 345 335 328 315 310 313 310 291 282 282 282 266 268 264 265 258 270 259 256 255 260 271 267 271 257 265
188 172 194 198 132 117 131 127 167 229 128 181 206 176 121 153 180 127 147 207 114 125 289 288 404 370 368 376 381 334 325 315 313 315 311 300 283 278 282 270 271 272 265 263 261 266 258 254 254 256 267 270 269 264
192 148 124 213 173 149 117 184 206 135 210 123 149 211 142 133 139 152 163 196 131 147 236 310 351 143 370 104 259 341 332 324 316 313 315 303 288 283 284 274 274 277 268 268 262 263 267 259 253 250 253 256 263 267
155 136 127 166 156 136 194 176 191 163 240 103 111 120 188 129 174 178 256 210 249 141 292 185 164 252 347 333 325 319 314 316 314 308 311 302 289 287 281 270 271 280 280 276 271 258 283 269 264 255 249 247 248 252
204 143 217 230 161 199 214 235 228 245 119 134 149 204 130 246 158 166 214 271 176 213 140 146 136 338 334 318 315 314 316 313 301 296 298 294 284 286 270 271 275 274 274 278 277 286 295 330 279 267 253 250 249 248
218 112 189 121 224 131 233 125 148 116 152 140 124 170 130 204 185 183 271 256 175 143 369 350 336 321 320 319 316 330 472 493 321 301 298 284 281 279 276 275 278 275 277 282 282 299 312 329 294 280 267 254 252 254
153 124 117 111 103 100 179 205 215 190 101 215 248 211 154 226 197 172 137 184 228 310 177 226 322 310 311 311 362 371 378 397 394 373 332 299 293 292 288 286 285 287 294 306 306 315 311 321 339 297 271 268 258 245
121 176 202 190 219 175 128 126 144 158 230 229 219 136 216 214 163 162 158 163 376 269 154 325 313 306 301 338 358 352 346 345 344 348 361 355 357 360 356 351 343 331 323 320 321 328 345 355 371 350 267 271 252 239
216 209 113 135 118 147 224 122 131 168 123 132 137 151 226 139 190 140 176 282 133 341 328 317 300 296 300 337 339 338 335 330 334 331 329 335 331 331 321 316 313 310 310 307 314 320 333 349 362 266 270 237 245 235
190 226 209 176 185 216 108 134 128 151 162 250 204 223 258 278 240 162 167 213 330 118 321 305 294 297 293 314 321 330 330 327 326 323 321 313 303 304 298 305 297 296 299 302 309 322 325 328 269 268 254 240 241 286
184 155 173 231 152 220 178 202 233 124 133 133 141 154 147 160 251 369 124 208 334 328 311 302 294 291 291 297 313 315 315 318 324 324 302 302 296 300 300 290 294 292 290 293 301 304 310 299 265 259 248 242 244 270
200 156 155 219 166 231 157 118 126 137 127 140 196 188 267 314 373 358 354 337 326 321 309 294 286 287 285 288 314 312 312 308 325 301 298 288 303 292 289 284 282 283 287 287 293 298 301 264 262 256 248 242 241 243
190 196 201 138 193 223 127 125 140 152 245 141 151 267 375 362 367 347 347 325 326 315 301 298 284 281 283 291 310 313 314 319 305 293 289 289 289 290 286 279 278 274 273 278 285 288 289 266 259 257 255 245 241 237
126 127 213 124 192 150 153 182 270 277 280 262 252 324 360 360 360 333 330 320 326 309 300 288 282 277 274 280 280 308 309 305 293 295 287 291 289 287 277 283 281 279 274 274 275 277 282 284 279 257 253 252 250 244
113 122 185 202 122 237 272 159 267 340 312 346 173 324 347 348 342 328 326 315 323 306 299 285 275 272 271 272 276 317 310 301 296 292 291 289 288 275 276 278 279 279 277 274 275 273 272 273 275 281 283 273 259 254
249 232 167 262 266 262 265 259 259 243 356 330 341 340 334 331 331 330 318 315 308 313 298 285 273 271 269 271 270 270 282 287 288 289 293 287 287 283 285 285 284 281 277 275 280 274 273 273 272 272 274 277 277 276
256 270 262 253 252 270 373 352 361 338 323 338 334 327 327 322 320 321 319 309 298 323 290 288 275 274 271 265 272 262 264 273 267 299 296 296 307 307 303 313 306 303 300 301 305 309 332 284 268 263 265 263 259 260
273 264 268 328 374 358 363 349 334 323 321 312 321 324 319 310 314 321 323 308 299 297 321 289 277 268 263 268 263 267 261 257 262 266 263 282 283 284 282 279 282 283 278 281 287 285 284 284 287 289 288 287 284 281
378 394 378 370 355 340 313 330 318 318 320 304 314 313 304 308 313 317 318 309 299 295 286 304 275 266 260 258 264 261 261 260 270 268 270 265 260 259 266 265 267 265 268 271 273 271 266 265 265 265 266 267 270 270
370 348 350 341 334 322 321 322 315 309 308 303 308 310 315 302 325 324 320 325 298 299 286 302 286 268 262 258 253 261 261 262 259 257 259 257 254 252 261 261 259 259 253 253 256 257 255 257 259 258 258 256 254 253
339 359 338 321 315 313 319 321 303 308 308 308 309 303 314 320 321 317 325 319 319 295 295 276 313 279 268 260 260 251 257 259 250 259 256 255 256 256 254 255 248 246 247 251 253 253 251 249 252 250 251 252 252 252
326 317 311 311 314 314 307 300 299 314 315 315 308 313 309 315 312 309 313 317 312 310 299 301 284 309 287 274 263 265 251 255 258 251 249 249 252 248 253 253 254 254 257 258 250 247 248 245 246 247 252 256 259 256
327 321 315 312 313 314 314 313 307 303 297 302 253 305 300 308 315 311 307 316 306 297 303 287 289 282 308 293 266 269 266 251 257 255 254 254 258 256 252 260 257 259 266 260 255 250 253 253 248 250 259 261 260 250
303 306 306 304 302 298 300 302 301 298 294 299 301 312 307 315 309 309 299 301 302 291 294 298 290 285 289 302 299 277 280 268 267 254 255 258 257 258 254 258 255 251 252 260 261 258 260 261 257 260 249 262 256 259
277 305 306 299 301 305 302 303 304 289 299 305 306 310 308 313 318 305 303 307 296 296 291 294 296 296 284 292 287 279 276 280 278 267 269 268 261 259 259 257 259 260 260 259 257 257 261 261 264 270 263 252 271 269
297 297 297 297 298 299 301 301 298 297 298 301 306 310 315 308 329 332 323 299 304 309 301 296 302 298 297 293 286 289 286 314 307 289 284 280 275 273 272 269 271 271 270 267 266 271 274 272 259 260 265 278 272 276
302 299 302 303 299 299 303 303 303 302 306 312 326 331 330 330 327 335 327 325 321 304 311 317 311 297 295 297 299 299 300 299 292 309 322 296 297 294 287 284 281 277 276 277 278 268 264 264 284 296 276 280 290 312
306 307 303 303 304 300 308 317 319 320 324 331 331 326 324 323 322 321 318 324 332 339 345 341 333 312 177 302 306 304 304 308 308 302 299 298 304 329 313 301 297 290 293 295 296 300 298 292 309 318 331 320 302 292
325 325 319 316 310 311 315 316 322 323 316 318 317 322 327 324 333 337 302 356 380 345 392 345 367 360 342 341 326 317 314 310 311 311 309 307 304 297 290 287 287 288 318 331 328 324 312 306 292 294 298 297 293 293